When you browse on this site, cookies collect data to enhance your experience and personalize the content and advertising you see.
Visit our Privacy Policy to learn more. By continuing to use the site, you agree to this use of cookies and data.

Hourly Weather Cuilapa

Today, 6 July, Monday

Time Temperature Precipitation Wind Pressure Humidity
00:00 +21°C° 0.9 mm 1 mps 686 mmHg 94%
01:00 +21°C° 1.1 mm 1 mps 685 mmHg 95%
02:00 +21°C° 1.1 mm 1 mps 685 mmHg 95%
03:00 +21°C° 1.1 mm 1 mps 684 mmHg 95%
04:00 +21°C° 0.1 mm 1 mps 685 mmHg 94%
05:00 +21°C° 0.1 mm 1 mps 685 mmHg 93%
06:00 +21°C° 0.1 mm 1 mps 685 mmHg 92%
07:00 +23°C° 0 mm 1 mps 686 mmHg 85%
08:00 +25°C° 0 mm 1 mps 687 mmHg 78%
09:00 +27°C° 0 mm 1 mps 687 mmHg 71%
10:00 +28°C° 0.5 mm 1 mps 687 mmHg 72%
11:00 +28°C° 0.5 mm 2 mps 687 mmHg 74%
12:00 +28°C° 0.5 mm 2 mps 687 mmHg 75%
13:00 +28°C° 0.8 mm 2 mps 687 mmHg 73%
14:00 +28°C° 0.8 mm 2 mps 686 mmHg 71%
15:00 +28°C° 0.8 mm 2 mps 686 mmHg 70%
16:00 +26°C° 0.2 mm 1 mps 686 mmHg 77%
17:00 +25°C° 0.2 mm 1 mps 686 mmHg 84%
18:00 +24°C° 0.2 mm 1 mps 686 mmHg 91%
19:00 +23°C° 0 mm 1 mps 686 mmHg 90%
20:00 +22°C° 0 mm 1 mps 686 mmHg 90%
21:00 +22°C° 0 mm 1 mps 686 mmHg 89%
22:00 +21°C° 0 mm 1 mps 686 mmHg 87%
23:00 +21°C° 0 mm 1 mps 686 mmHg 84%

Tomorrow, 7 July, Tuesday

Time Temperature Precipitation Wind Pressure Humidity
00:00 +20°C° 0 mm 1 mps 686 mmHg 82%
01:00 +20°C° 0 mm 1 mps 686 mmHg 80%
02:00 +20°C° 0 mm 1 mps 685 mmHg 79%
03:00 +20°C° 0 mm 1 mps 685 mmHg 78%
04:00 +20°C° 0 mm 1 mps 685 mmHg 79%
05:00 +20°C° 0 mm 1 mps 686 mmHg 79%
06:00 +20°C° 0 mm 1 mps 686 mmHg 80%
07:00 +23°C° 0 mm 1 mps 686 mmHg 75%
08:00 +25°C° 0 mm 1 mps 687 mmHg 71%
09:00 +27°C° 0 mm 1 mps 688 mmHg 67%
10:00 +28°C° 0 mm 1 mps 688 mmHg 64%
11:00 +29°C° 0 mm 1 mps 688 mmHg 61%
12:00 +30°C° 0 mm 2 mps 687 mmHg 59%
13:00 +29°C° 0.2 mm 2 mps 687 mmHg 63%
14:00 +29°C° 0.2 mm 2 mps 686 mmHg 67%
15:00 +29°C° 0.2 mm 2 mps 686 mmHg 70%
16:00 +27°C° 0.4 mm 1 mps 686 mmHg 78%
17:00 +26°C° 0.4 mm 1 mps 685 mmHg 86%
18:00 +25°C° 0.4 mm 1 mps 685 mmHg 94%
19:00 +24°C° 0.3 mm 1 mps 686 mmHg 95%
20:00 +23°C° 0.3 mm 1 mps 686 mmHg 96%
21:00 +20°C° 0.3 mm 0 mps 686 mmHg 97%
22:00 +22°C° 0.2 mm 1 mps 686 mmHg 96%
23:00 +22°C° 0.2 mm 1 mps 686 mmHg 96%

Day after tomorrow, 8 July, Wednesday

Time Temperature Precipitation Wind Pressure Humidity
00:00 +21°C° 0.2 mm 1 mps 686 mmHg 96%
01:00 +21°C° 0.3 mm 1 mps 686 mmHg 95%
02:00 +21°C° 0.3 mm 1 mps 685 mmHg 95%
03:00 +20°C° 0.3 mm 2 mps 685 mmHg 94%
04:00 +20°C° 0 mm 2 mps 685 mmHg 94%
05:00 +20°C° 0 mm 2 mps 685 mmHg 93%
06:00 +19°C° 0 mm 2 mps 685 mmHg 93%
07:00 +23°C° 0 mm 1 mps 686 mmHg 85%
08:00 +25°C° 0 mm 1 mps 686 mmHg 78%
09:00 +27°C° 0 mm 1 mps 687 mmHg 70%
10:00 +28°C° 0.1 mm 1 mps 687 mmHg 70%
11:00 +28°C° 0.1 mm 1 mps 687 mmHg 70%
12:00 +29°C° 0.1 mm 2 mps 687 mmHg 70%
13:00 +29°C° 0.3 mm 1 mps 686 mmHg 72%
14:00 +28°C° 0.3 mm 1 mps 685 mmHg 73%
15:00 +28°C° 0.3 mm 1 mps 685 mmHg 75%
16:00 +27°C° 0.5 mm 1 mps 684 mmHg 81%
17:00 +26°C° 0.5 mm 1 mps 684 mmHg 87%
18:00 +23°C° 0.5 mm 0 mps 684 mmHg 94%
19:00 +24°C° 0.9 mm 1 mps 684 mmHg 94%
20:00 +23°C° 0.9 mm 1 mps 685 mmHg 94%
21:00 +22°C° 0.9 mm 1 mps 685 mmHg 94%
22:00 +22°C° 0.2 mm 1 mps 685 mmHg 94%
23:00 +21°C° 0.2 mm 1 mps 685 mmHg 94%

9 July, Thursday

Time Temperature Precipitation Wind Pressure Humidity
00:00 +20°C° 0.2 mm 2 mps 685 mmHg 94%
01:00 +20°C° 0 mm 2 mps 684 mmHg 94%
02:00 +20°C° 0 mm 2 mps 684 mmHg 93%
03:00 +20°C° 0 mm 2 mps 684 mmHg 93%
04:00 +20°C° 0 mm 2 mps 684 mmHg 93%
05:00 +20°C° 0 mm 2 mps 684 mmHg 93%
06:00 +20°C° 0 mm 2 mps 684 mmHg 93%
07:00 +23°C° 0 mm 2 mps 685 mmHg 86%
08:00 +25°C° 0 mm 1 mps 686 mmHg 79%
09:00 +27°C° 0 mm 1 mps 687 mmHg 71%
10:00 +28°C° 0.1 mm 1 mps 686 mmHg 68%
11:00 +29°C° 0.1 mm 2 mps 686 mmHg 65%
12:00 +30°C° 0.1 mm 2 mps 686 mmHg 62%
13:00 +29°C° 0.4 mm 2 mps 686 mmHg 66%
14:00 +29°C° 0.4 mm 2 mps 685 mmHg 70%
15:00 +28°C° 0.4 mm 2 mps 684 mmHg 74%
16:00 +27°C° 0.4 mm 1 mps 684 mmHg 80%
17:00 +26°C° 0.4 mm 1 mps 684 mmHg 87%
18:00 +25°C° 0.4 mm 1 mps 684 mmHg 93%
19:00 +24°C° 0.3 mm 1 mps 684 mmHg 94%
20:00 +23°C° 0.3 mm 1 mps 685 mmHg 95%
21:00 +22°C° 0.3 mm 1 mps 685 mmHg 95%
22:00 +22°C° 0.2 mm 1 mps 685 mmHg 95%
23:00 +21°C° 0.2 mm 1 mps 685 mmHg 95%

10 July, Friday

Time Temperature Precipitation Wind Pressure Humidity
00:00 +20°C° 0.2 mm 2 mps 685 mmHg 96%
01:00 +20°C° 0 mm 2 mps 685 mmHg 95%
02:00 +20°C° 0 mm 2 mps 685 mmHg 94%
03:00 +19°C° 0 mm 2 mps 684 mmHg 94%
04:00 +19°C° 0 mm 2 mps 685 mmHg 93%
05:00 +19°C° 0 mm 2 mps 685 mmHg 92%
06:00 +20°C° 0 mm 2 mps 685 mmHg 91%
07:00 +21°C° 0 mm 2 mps 686 mmHg 85%
08:00 +24°C° 0 mm 1 mps 686 mmHg 79%
09:00 +26°C° 0 mm 1 mps 687 mmHg 74%
10:00 +27°C° 0.2 mm 1 mps 687 mmHg 73%
11:00 +27°C° 0.2 mm 1 mps 687 mmHg 72%
12:00 +28°C° 0.2 mm 2 mps 687 mmHg 70%
13:00 +27°C° 1.5 mm 1 mps 686 mmHg 78%
14:00 +26°C° 1.5 mm 1 mps 685 mmHg 85%
15:00 +25°C° 1.5 mm 1 mps 685 mmHg 92%
16:00 +24°C° 0.9 mm 1 mps 685 mmHg 93%
17:00 +22°C° 0.9 mm 0 mps 685 mmHg 94%
18:00 +21°C° 0.9 mm 0 mps 685 mmHg 95%
19:00 +23°C° 0.6 mm 1 mps 685 mmHg 95%
20:00 +22°C° 0.6 mm 1 mps 686 mmHg 95%
21:00 +22°C° 0.6 mm 1 mps 686 mmHg 94%
22:00 +22°C° 0 mm 1 mps 686 mmHg 94%
23:00 +20°C° 0 mm 2 mps 686 mmHg 94%

11 July, Saturday

Time Temperature Precipitation Wind Pressure Humidity
00:00 +20°C° 0 mm 2 mps 686 mmHg 94%
01:00 +20°C° 0 mm 2 mps 686 mmHg 93%
02:00 +20°C° 0 mm 2 mps 685 mmHg 93%
03:00 +20°C° 0 mm 2 mps 685 mmHg 93%
04:00 +19°C° 0 mm 2 mps 685 mmHg 93%
05:00 +19°C° 0 mm 2 mps 685 mmHg 93%
06:00 +19°C° 0 mm 2 mps 685 mmHg 92%
07:00 +21°C° 0 mm 2 mps 686 mmHg 86%
08:00 +24°C° 0 mm 1 mps 686 mmHg 80%
09:00 +26°C° 0 mm 1 mps 687 mmHg 73%
10:00 +27°C° 0 mm 1 mps 687 mmHg 68%
11:00 +28°C° 0 mm 2 mps 687 mmHg 62%
12:00 +30°C° 0 mm 2 mps 687 mmHg 57%
13:00 +29°C° 0.4 mm 2 mps 687 mmHg 64%
14:00 +28°C° 0.4 mm 2 mps 686 mmHg 70%
15:00 +28°C° 0.4 mm 2 mps 686 mmHg 77%
16:00 +27°C° 0.7 mm 1 mps 685 mmHg 83%
17:00 +25°C° 0.7 mm 1 mps 685 mmHg 88%
18:00 +24°C° 0.7 mm 1 mps 685 mmHg 93%
19:00 +23°C° 0.7 mm 1 mps 686 mmHg 94%
20:00 +22°C° 0.7 mm 1 mps 686 mmHg 95%
21:00 +21°C° 0.7 mm 1 mps 686 mmHg 95%
22:00 +21°C° 0.5 mm 1 mps 686 mmHg 94%
23:00 +20°C° 0.5 mm 2 mps 686 mmHg 94%
Show more